RH
63 64 64 64 67 68 70 70 69 65 61 52 45 50 52 50 53 45 47 61 61 64 72 61 83 88 78 48 91 97 100 97
63 65 66 68 73 78 83 83 82 79 81 81 71 72 68 66 66 67 68 53 52 56 58 55 56 65 98 98 91 94 96 97
65 68 71 75 81 83 84 83 84 84 88 90 88 86 76 74 73 71 68 68 60 58 59 58 53 61 68 87 98 84 85 78
73 73 78 83 89 89 88 82 83 84 89 91 93 92 90 89 88 85 80 84 76 66 64 71 63 66 74 77 99 96 82 86
76 80 84 89 89 85 82 84 86 90 87 90 89 90 89 91 97 97 96 90 92 83 77 73 73 62 69 67 72 100 98 86
84 86 89 85 84 83 86 91 88 85 86 86 88 89 88 91 92 92 92 93 98 95 89 86 88 90 87 87 86 80 100 91
84 88 80 81 82 84 94 94 89 90 97 92 86 87 85 84 86 87 93 95 94 96 92 88 92 91 88 93 97 89 99 98
92 85 84 83 88 95 98 95 97 99 97 95 99 100 100 98 96 97 96 93 94 97 96 95 91 96 98 90 92 95 99 100
95 84 90 88 95 96 99 100 97 98 96 98 100 100 100 100 100 100 100 98 97 97 100 99 98 90 94 99 99 88 78 89
95 86 94 96 96 97 100 100 99 99 98 100 100 100 100 100 98 98 100 99 100 99 97 98 100 99 98 93 99 100 98 100
94 94 94 90 94 95 97 100 100 100 100 100 100 100 99 96 96 97 98 99 99 99 99 99 98 100 99 100 96 94 98 99
97 94 86 85 84 90 97 99 100 100 100 98 99 97 97 96 97 97 98 98 98 99 100 100 100 100 100 100 100 99 97 97
96 89 86 85 90 91 99 97 93 97 94 97 97 98 96 97 97 97 97 99 98 100 100 100 100 100 100 100 100 100 100 99
93 87 90 92 95 96 98 96 88 86 93 97 96 95 97 97 97 97 97 98 98 99 100 100 100 100 100 100 100 100 100 100
89 89 89 91 96 96 97 95 80 83 87 94 95 95 96 96 96 96 97 98 99 99 99 100 100 100 100 100 100 100 100 100
81 86 85 87 88 94 92 91 81 83 87 91 90 90 97 99 99 99 98 98 98 100 100 100 100 100 100 100 100 100 100 100
71 71 74 80 86 89 90 89 85 84 86 88 81 81 87 96 100 100 100 100 100 100 99 99 99 100 100 99 100 100 100 100
69 76 84 89 92 91 92 84 82 88 92 88 83 83 86 93 100 100 100 100 100 100 100 98 97 99 100 100 100 98 98 99
72 84 87 87 83 82 78 78 83 86 90 94 83 86 88 89 94 100 100 100 100 100 100 100 95 90 94 100 100 100 100 97
Wind_Speed
16 21 25 26 27 28 28 30 30 31 30 31 28 25 25 25 20 24 18 15 16 16 12 13 16 26 37 18 30 20 23 27
13 18 24 27 27 28 26 29 30 32 29 30 29 26 37 27 29 20 18 21 20 20 20 18 18 20 23 21 31 25 22 25
15 20 25 27 27 31 31 32 31 32 25 25 19 25 24 31 26 28 27 22 24 23 23 22 21 21 23 22 29 31 40 37
9 16 19 23 25 29 28 30 28 32 29 26 24 22 21 21 26 31 28 26 27 24 22 21 23 22 24 25 19 34 34 43
10 15 18 21 24 24 25 25 29 26 26 25 24 23 24 25 25 25 28 29 26 23 23 22 24 25 27 28 27 26 35 32
10 15 18 21 20 21 25 20 23 23 24 23 24 24 24 25 25 26 25 23 21 22 21 23 23 24 27 25 25 30 34 36
10 14 15 16 19 21 23 20 22 22 23 23 23 24 25 25 26 26 24 23 22 20 21 23 25 24 25 23 22 28 30 42
6 13 16 17 21 24 23 24 24 25 24 24 25 24 25 23 26 24 24 23 22 21 22 23 24 22 25 29 29 31 27 27
6 11 14 18 21 24 24 27 26 27 27 27 27 26 27 24 24 25 23 22 22 22 25 27 26 25 23 23 26 30 34 30
6 12 16 18 20 24 24 24 24 26 28 25 25 27 28 26 24 23 21 21 19 19 21 22 24 24 26 23 22 22 20 20
6 10 15 18 20 22 24 23 24 26 26 26 26 28 28 27 25 25 24 22 21 18 17 17 17 17 19 21 20 22 20 22
4 10 15 18 20 23 24 25 24 26 28 29 29 32 30 31 29 28 28 26 27 25 21 19 18 16 8 13 21 20 19 18
3 10 14 19 21 23 22 22 26 29 29 27 29 31 34 31 31 32 30 31 30 29 28 29 30 27 23 20 14 10 13 12
3 10 13 16 19 19 21 22 27 27 28 27 31 34 32 32 32 34 35 35 32 32 33 35 36 34 32 30 27 27 27 25
2 5 9 12 15 17 20 22 26 26 26 26 30 31 30 33 34 34 35 37 36 36 35 36 39 40 38 35 35 33 33 34
4 4 7 11 13 17 18 21 23 24 24 27 28 28 28 28 30 31 35 36 36 35 40 42 41 42 41 37 39 40 37 36
4 5 7 10 12 13 15 19 21 21 25 27 30 31 32 32 31 31 31 33 35 38 40 42 43 43 42 41 41 42 41 40
5 4 6 7 10 11 16 17 19 19 22 27 31 31 33 33 30 30 32 34 34 38 39 41 42 42 38 39 41 44 42 43
6 6 6 8 10 13 16 18 19 20 21 25 30 30 31 32 33 32 31 31 34 36 38 39 41 46 42 37 36 38 41 45
Wind_Direction
14 12 13 11 10 8 5 2 359 357 351 343 339 339 325 336 324 327 327 323 319 313 298 286 283 279 283 276 273 258 237 243
10 9 9 8 8 5 3 359 359 358 356 352 342 334 330 326 328 331 312 310 309 303 300 292 281 286 273 267 238 241 265 259
2 1 4 6 1 1 359 359 356 354 349 341 327 319 319 321 325 316 318 314 307 304 299 295 285 283 281 273 249 239 238 249
356 357 358 360 0 1 354 353 349 347 344 340 334 329 321 320 320 320 318 317 314 309 299 291 283 277 272 266 265 221 216 239
356 355 355 356 357 357 350 349 344 347 343 338 335 326 321 318 314 312 313 317 312 307 298 292 284 278 273 266 256 247 219 223
349 351 347 352 353 351 345 345 346 342 340 335 329 321 316 313 310 306 306 307 306 312 306 295 283 272 270 263 262 257 230 224
350 348 348 350 348 348 349 347 345 341 338 334 329 321 320 317 313 309 305 304 303 294 292 293 288 279 271 265 257 257 261 225
342 355 350 351 350 350 352 349 344 345 343 339 334 326 325 318 315 309 308 304 295 286 286 282 277 272 267 264 260 257 253 243
344 353 350 352 350 349 351 350 347 347 347 344 340 338 334 329 323 319 314 309 303 300 289 283 285 275 267 263 264 262 261 266
345 355 356 351 349 351 353 348 349 350 348 346 346 345 345 345 343 341 333 329 322 312 300 299 277 272 264 260 262 257 253 257
346 353 353 356 356 356 359 356 355 351 350 353 353 354 0 4 2 357 357 358 355 346 335 329 303 300 259 246 250 260 262 262
333 354 2 5 7 4 359 359 358 0 1 359 3 6 9 11 8 7 9 12 16 13 11 9 7 15 7 277 253 254 256 259
352 2 7 11 10 3 356 358 8 13 11 5 14 14 19 11 12 13 13 15 21 23 26 28 28 29 33 31 10 319 268 272
5 14 6 7 7 359 360 6 13 16 17 15 26 23 15 14 14 19 22 20 23 28 34 35 35 35 36 38 40 42 42 42
21 8 2 11 10 2 4 11 24 21 21 23 31 25 19 22 23 23 26 29 27 30 35 40 41 41 41 41 43 44 46 41
54 21 10 21 17 7 9 18 27 26 26 29 31 30 28 25 23 25 31 32 30 36 37 39 40 43 44 48 48 44 43 44
93 53 40 30 21 13 15 20 28 31 34 33 37 36 36 30 28 29 32 34 36 38 39 40 39 39 41 45 54 50 45 42
110 77 57 39 32 22 24 27 34 36 36 37 39 36 37 34 29 29 32 34 37 40 39 41 41 40 43 46 50 51 48 44
121 103 83 68 63 56 51 48 44 41 40 40 40 40 37 38 35 30 31 34 38 39 39 40 41 38 38 42 45 50 48 46